User: anonymous   Login
Location: Dunedin
(45.8670°S, 170.5000°E)
Time: 12:24:07
(UTC+13:00)
Language:

Cosmos 724 - Orbit

View from above orbital plane
View from above orbital plane
View from above satellite
View from above satellite

Ground track
Ground track

The orbit data is extracted from the following two-line orbital elements,

1  7727U 75025A   19320.11057141 -.00000061  00000-0  18529-4 0  9994
2  7727  65.5886 183.6561 0052356 160.7202 199.5868 13.98920883279524
Epoch (UTC): 16 November 2019 02:39:13
Eccentricity: 0.0052356
inclination: 65.5886°
perigee height: 859 km
apogee height: 935 km
right ascension of ascending node: 183.6561°
argument of perigee: 160.7202°
revolutions per day: 13.98920883
mean anomaly at epoch: 199.5868°
orbit number at epoch: 27952

The dashed part of the orbit path shows where the satellite is in the earth's shadow,  

DLR